Tracking 25193 objects as of 17-Jan-2022
HD Live streaming from Space Station
objects crossing your sky now

ESSA 3 (TOS-A)

Track ESSA 3 (TOS-A) now!
10-day predictions
ESSA 3 (TOS-A) is classified as:


NORAD ID: 2435
Int'l Code: 1966-087A
Perigee: 1,392.9 km
Apogee: 1,493.3 km
Inclination: 100.9 °
Period: 114.6 minutes
Semi major axis: 7814 km
RCS: 0.8135 m2 (medium)
Launch date: October 2, 1966
Source: United States (US)
Launch site: AIR FORCE WESTERN TEST RANGE (AFWTR)
aabbcc
Your satellite tracking list
Your tracking list is empty




NASA's NSSDC Master Catalog

Two Line Element Set (TLE):
1 02435U 66087A   22016.88866928 -.00000036  00000-0  24266-4 0  9991
2 02435 100.9443   0.4570 0064236  21.5573  30.4004 12.56846591536458
Source of the keplerian elements: AFSPC